Philadelphia, PA

2:31 AM EDT on May 27, 2018 (GMT -0400)
Philadelphia International

Weather History for KPHL - March, 2013

Change the Weather History Date:

Thursday, March 28, 2013

  Actual Average Record
Temperature  
Mean Temperature 42 °F 48 °F  
Max Temperature 49 °F 57 °F 83 °F (1945)
Min Temperature 35 °F 38 °F 18 °F (1923)
Degree Days  
Heating Degree Days 23 18  
Month to date heating degree days 676 616  
Since 1 July heating degree days 3883 4098  
Cooling Degree Days 0 0  
Month to date cooling degree days 0 0  
Year to date cooling degree days 0 0  
Moisture  
Dew Point 25 °F    
Average Humidity 52    
Maximum Humidity 70    
Minimum Humidity 34    
Precipitation  
Precipitation T in 0.13 in 1.98 in (1932)
Month to date precipitation 2.24 3.40  
Year to date precipitation 7.70 9.08  
Snow  
Snow 0.00 in 0.00 in T in (1984)
Month to date snowfall 1.3 2.8  
Since 1 July snowfall 8.3 21.8  
Snow Depth 0.00 in    
Sea Level Pressure  
Sea Level Pressure 30.08 in    
Wind  
Wind Speed 12 mph (NW)    
Max Wind Speed 21 mph    
Max Gust Speed 26 mph    
Visibility 10 miles    
Events      
T = Trace of Precipitation, MM = Missing Value Source: NWS Daily Summary

Daily Weather History Graph

Daily Weather History Graph

Search for Another Location

Airport or City:

Astronomy

Mar. 28, 2013 Rise Set
Actual Time 6:51 AM EDT 7:21 PM EDT
Civil Twilight 6:23 AM EDT 7:48 PM EDT
Nautical Twilight 5:52 AM EDT 8:20 PM EDT
Astronomical Twilight 5:19 AM EDT 8:53 PM EDT
Moon 9:10 PM EDT (3/28) 7:17 AM EDT (3/28)
Length of Visible Light 13h 24m
Length of Day
12h 30m
Full, 98% of the Moon is Illuminated
Mar 28
Full
Apr 3
Last Quarter
Apr 10
New
Apr 18
First Quarter
Apr 25
Full

Hourly Weather History & Observations

Time (EDT) Temp. Windchill Dew Point Humidity Pressure Visibility Wind Dir Wind Speed Gust Speed Precip Events Conditions
12:54 AM 41.0 °F 35.8 °F 26.1 °F 55% 30.05 in 10.0 mi West 8.1 mph - N/A   Clear
1:54 AM 41.0 °F 35.8 °F 26.1 °F 55% 30.04 in 10.0 mi WNW 8.1 mph - N/A   Clear
2:54 AM 37.0 °F 31.6 °F 26.1 °F 65% 30.04 in 10.0 mi WSW 6.9 mph - N/A   Partly Cloudy
3:54 AM 36.0 °F 29.0 °F 26.1 °F 67% 30.04 in 10.0 mi West 9.2 mph - N/A   Partly Cloudy
4:54 AM 35.1 °F 29.3 °F 26.1 °F 70% 30.04 in 10.0 mi WSW 6.9 mph - N/A   Partly Cloudy
5:54 AM 35.1 °F 28.6 °F 26.1 °F 70% 30.04 in 10.0 mi West 8.1 mph - N/A   Mostly Cloudy
6:54 AM 37.0 °F 31.6 °F 26.1 °F 65% 30.05 in 10.0 mi West 6.9 mph - N/A   Scattered Clouds
7:54 AM 39.0 °F 32.3 °F 27.0 °F 62% 30.06 in 10.0 mi WNW 10.4 mph - N/A   Scattered Clouds
8:54 AM 43.0 °F 36.4 °F 28.0 °F 56% 30.06 in 10.0 mi NW 12.7 mph - N/A   Scattered Clouds
9:54 AM 44.1 °F 38.1 °F 26.1 °F 49% 30.06 in 10.0 mi NW 11.5 mph - N/A   Mostly Cloudy
10:54 AM 46.0 °F 39.9 °F 27.0 °F 47% 30.07 in 10.0 mi NW 13.8 mph - N/A   Mostly Cloudy
11:54 AM 48.0 °F - 26.1 °F 42% 30.06 in 10.0 mi WNW 13.8 mph 20.7 mph N/A   Mostly Cloudy
12:54 PM 46.0 °F 39.6 °F 25.0 °F 44% 30.06 in 10.0 mi NNW 15.0 mph - N/A   Overcast
1:54 PM 46.9 °F - 25.0 °F 42% 30.06 in 10.0 mi NNW 17.3 mph 23.0 mph 0.00 in   Overcast
2:54 PM 48.9 °F - 21.0 °F 33% 30.06 in 10.0 mi NNW 16.1 mph - 0.00 in   Overcast
3:54 PM 48.0 °F - 25.0 °F 41% 30.06 in 10.0 mi NW 16.1 mph 25.3 mph N/A   Overcast
4:54 PM 48.9 °F - 25.0 °F 39% 30.06 in 10.0 mi NNW 19.6 mph 24.2 mph N/A   Overcast
5:54 PM 48.9 °F - 25.0 °F 39% 30.08 in 10.0 mi NW 15.0 mph - N/A   Overcast
6:54 PM 48.0 °F - 25.0 °F 41% 30.10 in 10.0 mi NW 10.4 mph - N/A   Overcast
7:54 PM 48.0 °F - 24.1 °F 39% 30.13 in 10.0 mi NW 13.8 mph - N/A   Overcast
8:54 PM 46.9 °F - 24.1 °F 41% 30.14 in 10.0 mi NW 15.0 mph 24.2 mph N/A   Overcast
9:54 PM 46.9 °F - 25.0 °F 42% 30.16 in 10.0 mi NW 10.4 mph - N/A   Overcast
10:54 PM 46.9 °F - 25.0 °F 42% 30.16 in 10.0 mi NW 11.5 mph - N/A   Overcast
11:54 PM 46.0 °F 40.6 °F 25.0 °F 44% 30.17 in 10.0 mi NW 11.5 mph - N/A   Overcast